This demonstration page uses our WeatherBlox Daily Observations layout. Learn more.

Left ArrowRight Arrow

Hourly Observations for November 23, 2021

Temp ( °F °C ) Dew Point ( °F °C ) Humidity (%) Winds ( mph kmh ) Pressure ( in mb ) Visibility ( mi km ) Precip ( " mm )
12:53 am 00:53 Clear 38 3.3 22 -5.6 52 52 NNW 6 9 30.14 1021 10 16 0.00 0.00
1:53 am 01:53 Clear 36 2.2 23 -5 59 59 NNW 6 9 30.14 1021 10 16 0.00 0.00
2:53 am 02:53 Clear 35 1.7 23 -5 61 61 NNW 6 9 30.16 1022 10 16 0.00 0.00
3:53 am 03:53 Clear 33 0.6 23 -5 66 66 NNW 6 9 30.17 1022 10 16 0.00 0.00
4:53 am 04:53 Clear 33 0.6 23 -5 66 66 VRB 5 7 30.18 1022 10 16 0.00 0.00
5:53 am 05:53 Clear 31 -0.6 22 -5.6 69 69 VRB 5 7 30.21 1023 10 16 0.00 0.00
6:53 am 06:53 Clear 31 -0.6 23 -5 72 72 VRB 3 6 30.23 1024 10 16 0.00 0.00
7:53 am 07:53 Sunny 31 -0.6 23 -5 72 72 VRB 3 6 30.26 1025 10 16 0.00 0.00
8:53 am 08:53 Sunny 36 2.2 24 -4.4 62 62 N 5 7 30.27 1025 10 16 0.00 0.00
9:53 am 09:53 Sunny 41 5 22 -5.6 47 47 N 6 9 30.29 1026 10 16 0.00 0.00
10:53 am 10:53 Sunny 46 7.8 19 -7.2 34 34 undefined N/A 30.27 1025 10 16 0.00 0.00
11:53 am 11:53 Sunny 49 9.4 18 -7.8 29 29 WNW 8 13 30.26 1025 10 16 0.00 0.00
12:53 pm 12:53 Sunny 52 11.1 16 -8.9 24 24 N 8 13 30.24 1024 10 16 0.00 0.00
1:53 pm 13:53 Sunny 52 11.1 14 -10 22 22 NW 10 17 30.22 1024 10 16 0.00 0.00
2:53 pm 14:53 Sunny 53 11.7 12 -11.1 19 19 WNW 10 17 30.21 1023 10 16 0.00 0.00
3:53 pm 15:53 Sunny 53 11.7 14 -10 21 21 WNW 8 13 30.21 1023 10 16 0.00 0.00
4:53 pm 16:53 Sunny 51 10.6 17 -8.3 26 26 NW 7 11 30.23 1024 10 16 0.00 0.00
5:53 pm 17:53 Clear 46 7.8 18 -7.8 32 32 NW 5 7 30.24 1024 10 16 0.00 0.00
6:53 pm 18:53 Clear 42 5.6 22 -5.6 45 45 NW 3 6 30.26 1025 10 16 0.00 0.00
7:53 pm 19:53 Clear 39 3.9 22 -5.6 50 50 Calm 30.27 1025 10 16 0.00 0.00
8:53 pm 20:53 Clear 37 2.8 23 -5 57 57 Calm 30.28 1025 10 16 0.00 0.00
9:53 pm 21:53 Clear 37 2.8 25 -3.9 62 62 Calm 30.28 1025 10 16 0.00 0.00
10:53 pm 22:53 Clear 33 0.6 25 -3.9 72 72 Calm 30.29 1026 10 16 0.00 0.00
11:53 pm 23:53 Clear 32 0 26 -3.3 79 79 Calm 30.29 1026 10 16 0.00 0.00

Powered by AerisWeather